Weather History for EIKN - August, 2013

Change the Weather History Date:

Friday, August 30, 2013

  Actual Average Record
Temperature  
Mean Temperature 55 °F -  
Max Temperature 59 °F - - ()
Min Temperature 50 °F - - ()
Degree Days  
Heating Degree Days 10    
Growing Degree Days 5 (Base 50)    
Moisture  
Dew Point 53 °F    
Average Humidity 88    
Maximum Humidity 100    
Minimum Humidity 58    
Precipitation  
Precipitation 0.08 in - - ()
Sea Level Pressure  
Sea Level Pressure 30.04 in    
Wind  
Wind Speed 13 mph ()    
Max Wind Speed 21 mph    
Max Gust Speed 32 mph    
Visibility 5.7 miles    
Events Fog , Rain    
T = Trace of Precipitation, MM = Missing Value Source: Averaged Metar Reports

Daily Weather History Graph

Daily Weather History Graph

Search for Another Location

Airport or City:

Trip Planner

Search our weather history database for the weather conditions in past years. The results will help you decide how hot, cold, wet, or windy it might be!

Date:

Astronomy

Aug. 30, 2013 Rise Set
Actual Time 6:40 AM IST 8:30 PM IST
Civil Twilight 6:02 AM IST 9:07 PM IST
Nautical Twilight 5:15 AM IST 9:53 PM IST
Astronomical Twilight 4:22 AM IST 10:46 PM IST
Moon 12:39 AM IST 5:03 PM IST
Length of Visible Light 15h 04m
Length of Day
13h 49m
Waning Crescent, 31% of the Moon is Illuminated
Aug 30
Waning Crescent
Sep 5
New
Sep 12
First Quarter
Sep 19
Full
Sep 27
Last Quarter

Hourly Weather History & Observations

Time (IST) Temp. Dew Point Humidity Pressure Visibility Wind Dir Wind Speed Gust Speed Precip Events Conditions
1:00 AM 56 °F 55 °F 97% 30.06 in - South 8.9 mph - -  
6:00 AM 59.0 °F 59.0 °F 100% 29.95 in 6.2 mi SSW 18.4 mph - N/A   Mostly Cloudy
7:00 AM 58 °F 58 °F 100% 29.96 in 1 mi SSW 13.4 mph - -   Mist
7:00 AM 59.0 °F 59.0 °F 100% 29.95 in 0.7 mi SSW 13.8 mph - N/A   Overcast
7:30 AM 59.0 °F 59.0 °F 100% 29.95 in 0.5 mi SSW 13.8 mph - N/A Fog Fog
8:00 AM 59.0 °F 59.0 °F 100% 29.95 in 6.2 mi SW 13.8 mph - N/A   Mostly Cloudy
8:30 AM 59.0 °F 59.0 °F 100% 29.95 in 6.2 mi SSW 8.1 mph - N/A   Mostly Cloudy
9:00 AM 59.0 °F 59.0 °F 100% 29.95 in 6.2 mi South 9.2 mph - N/A   Light Drizzle
9:30 AM 59.0 °F 59.0 °F 100% 29.95 in 5.0 mi SSW 10.4 mph - N/A   Light Drizzle
10:00 AM 59.0 °F 57.2 °F 94% 29.95 in 5.0 mi West 15.0 mph - N/A Rain Light Rain
10:30 AM 57.2 °F 57.2 °F 100% 29.98 in 6.2 mi WSW 15.0 mph - N/A   Light Drizzle
11:00 AM 59.0 °F 57.2 °F 94% 29.98 in 5.0 mi SW 12.7 mph - N/A Rain Light Rain
11:30 AM 57.2 °F 57.2 °F 100% 29.98 in 6.2 mi WSW 15.0 mph - N/A   Light Drizzle
12:00 PM 59.0 °F 57.2 °F 94% 29.98 in 6.2 mi WSW 13.8 mph - N/A   Mostly Cloudy
12:30 PM 59.0 °F 57.2 °F 94% 30.01 in 6.2 mi WSW 12.7 mph 25.3 mph N/A   Mostly Cloudy
1:00 PM 59 °F 55 °F 82% 30.01 in 19 mi WSW 20.1 mph - - Rain Light Drizzle
1:00 PM 59.0 °F 55.4 °F 88% 30.01 in 6.2 mi WSW 20.7 mph 32.2 mph N/A   Light Drizzle
1:30 PM 59.0 °F 55.4 °F 88% 30.01 in 6.2 mi West 20.7 mph - N/A   Light Drizzle
2:00 PM 59.0 °F 53.6 °F 82% 30.01 in 6.2 mi West 16.1 mph 28.8 mph N/A   Mostly Cloudy
2:30 PM 59.0 °F 53.6 °F 82% 30.04 in 6.2 mi West 17.3 mph - N/A   Mostly Cloudy
3:00 PM 57.2 °F 55.4 °F 94% 30.04 in 5.0 mi WSW 19.6 mph - N/A   Light Drizzle
3:30 PM 57.2 °F 57.2 °F 100% 30.04 in 2.5 mi WSW 16.1 mph - N/A Rain Light Rain
4:00 PM 57.2 °F 57.2 °F 100% 30.06 in 1.9 mi WSW 18.4 mph - N/A Rain Rain
4:30 PM 55.4 °F 53.6 °F 94% 30.06 in 6.2 mi NW 20.7 mph - N/A   Mostly Cloudy
5:00 PM 55.4 °F 51.8 °F 88% 30.09 in 6.2 mi WNW 19.6 mph - N/A   Mostly Cloudy
5:30 PM 57.2 °F 48.2 °F 72% 30.09 in 6.2 mi NW 19.6 mph - N/A   Scattered Clouds
6:00 PM 55.4 °F 46.4 °F 72% 30.09 in 6.2 mi WNW 20.7 mph - N/A   Scattered Clouds
6:30 PM 55.4 °F 44.6 °F 67% 30.12 in 6.2 mi WNW 17.3 mph - N/A   Scattered Clouds
7:00 PM 55 °F 44 °F 58% 30.17 in 34 mi WNW 20.1 mph - -   Partly Cloudy
7:00 PM 55.4 °F 44.6 °F 67% 30.15 in 6.2 mi WNW 19.6 mph - N/A   Scattered Clouds
7:30 PM 53.6 °F 42.8 °F 67% 30.15 in 6.2 mi NW 18.4 mph - N/A   Scattered Clouds
8:00 PM 51.8 °F 42.8 °F 71% 30.18 in 6.2 mi WNW 10.4 mph - N/A   Scattered Clouds
8:30 PM 51.8 °F 42.8 °F 71% 30.18 in 6.2 mi WNW 9.2 mph - N/A   Partly Cloudy
9:00 PM 50.0 °F 42.8 °F 76% 30.21 in 6.2 mi WNW 12.7 mph - N/A   Scattered Clouds